SCP
0 0 0 0 0 0 0 0 0 0 0 0 0 0 1 1 2 2 3 4 5 4 3 2 2 1 1 1 1 1 1 1 1 1 0 0 0 0 0 0 0 0 0 0
0 0 0 0 0 0 0 0 0 0 0 0 0 0 1 1 2 3 4 5 5 4 3 2 2 1 1 1 1 1 1 1 1 1 0 0 0 0 0 0 0 0 0 0
0 0 0 0 0 0 0 0 0 0 0 0 0 0 1 1 2 3 5 5 4 4 3 2 2 1 1 1 1 1 1 1 1 0 0 0 0 0 0 0 0 0 0 0
0 0 0 0 0 0 0 0 0 0 0 0 0 0 1 1 2 4 4 4 4 3 2 2 1 1 1 1 1 1 0 0 0 0 0 0 0 0 0 0 0 0 0 0
0 0 0 0 0 0 0 0 0 0 0 0 0 0 0 1 2 3 4 4 3 3 2 2 1 1 1 0 0 0 0 0 0 0 0 0 0 0 0 0 0 0 0 0
0 0 0 0 0 0 0 0 0 0 0 0 0 0 0 1 2 3 3 3 2 2 1 1 1 0 0 0 0 0 0 0 0 0 0 0 0 0 0 0 0 0 0 0
0 0 0 0 0 0 0 0 0 0 0 0 0 0 0 1 2 3 3 2 1 1 1 0 0 0 0 0 0 0 0 0 0 0 0 0 0 0 0 0 0 0 0 0
0 0 0 0 0 0 0 0 0 0 0 0 0 0 0 1 2 2 2 1 1 0 0 0 0 0 0 0 0 0 0 0 0 0 0 0 0 0 0 0 0 0 0 0
0 0 0 0 0 0 0 0 0 0 0 0 0 0 1 1 1 1 1 0 0 0 0 0 0 0 0 0 0 0 0 0 0 0 0 0 0 0 0 0 0 0 0 0
0 0 0 0 0 0 0 0 0 0 0 0 0 0 1 1 1 1 1 0 0 0 0 0 0 0 0 0 0 0 0 0 0 0 0 0 0 0 0 0 0 0 0 0
0 0 0 0 0 0 0 0 0 0 0 0 0 0 0 1 1 1 0 0 0 0 0 0 0 0 0 0 0 0 0 0 0 0 0 0 0 0 0 0 0 0 0 0
0 0 0 0 0 0 0 0 0 0 0 0 0 0 0 1 1 0 0 0 0 0 0 0 0 0 0 0 0 0 0 0 0 0 0 0 0 0 0 0 0 0 0 0
0 0 0 0 0 0 0 0 0 0 0 0 0 0 1 1 1 0 0 0 0 0 0 0 0 0 0 0 0 0 0 0 0 0 0 0 0 0 0 0 0 0 0 0
0 0 0 0 0 0 0 0 0 0 0 0 0 0 1 1 0 0 0 0 0 0 0 0 0 0 0 0 0 0 0 0 0 0 0 0 0 0 0 0 0 0 0 0
0 0 0 0 0 0 0 0 0 0 0 0 1 1 1 1 0 0 0 0 0 0 0 0 0 0 0 0 0 0 0 0 0 0 0 0 0 0 0 0 0 0 0 0
0 0 0 0 0 0 0 0 0 0 0 1 1 1 1 0 0 0 0 0 0 0 0 0 0 0 0 0 0 0 0 0 0 0 0 0 0 0 0 0 0 0 0 0
0 0 0 0 0 0 0 0 0 0 1 1 1 1 0 0 0 0 0 0 0 0 0 0 0 0 0 0 0 0 0 0 0 0 0 0 0 0 0 0 0 0 0 0
0 0 0 0 0 0 0 0 0 0 1 1 1 1 0 0 0 0 0 0 0 0 0 0 0 0 0 0 0 0 0 0 0 0 0 0 0 0 0 0 0 0 0 0
0 0 0 0 0 0 0 0 0 0 1 1 1 1 0 0 0 0 0 0 0 0 0 0 0 0 0 0 0 0 0 0 0 0 0 0 0 0 0 0 0 0 0 0
0 0 0 0 0 0 0 0 0 0 0 1 1 0 0 0 0 0 0 0 0 0 0 0 0 0 0 0 0 0 0 0 0 0 0 0 0 0 0 0 0 0 0 0
0 0 0 0 0 0 0 0 0 0 0 0 0 0 0 0 0 0 0 0 0 0 0 0 0 0 0 0 0 0 0 0 0 0 0 0 0 0 0 0 0 0 0 0
0 0 0 0 0 0 0 0 0 0 0 0 0 0 0 0 0 0 0 0 0 0 0 0 0 0 0 0 0 0 0 0 -0 0 0 0 0 0 0 0 0 0 0 0
0 0 0 0 0 0 0 0 0 0 0 0 0 0 0 0 0 0 0 0 0 0 0 0 0 0 0 0 0 0 0 0 0 0 0 0 0 0 0 0 0 0 0 0
0 0 0 0 0 0 0 0 0 0 0 0 0 0 0 0 0 0 0 0 0 0 0 0 0 0 0 0 -0 0 0 0 0 0 0 0 0 0 0 0 0 0 0 0
0 0 0 0 0 0 0 0 0 0 0 0 0 0 0 0 0 0 0 0 0 0 0 0 0 0 0 0 0 0 0 0 0 0 0 0 0 0 0 0 0 0 0 0
0 0 0 0 0 0 0 0 0 0 0 0 0 0 0 0 0 0 0 0 0 0 0 0 0 0 0 0 0 0 0 0 0 0 0 0 0 0 0 0 0 0 0 0
Wind_Speed
4 3 5 8 8 8 7 8 11 15 13 5 5 8 12 14 19 17 14 13 13 10 6 5 6 7 7 7 8 8 8 6 5 4 4 4 4 4 4 5 6 6 7 7
0 7 12 10 8 7 8 11 14 14 7 2 6 8 7 11 15 16 16 14 13 11 9 8 6 6 8 9 10 10 10 9 7 5 3 3 4 3 2 3 5 7 7 8
9 10 9 10 11 11 12 11 13 13 4 4 7 7 6 8 12 15 15 15 12 12 10 9 10 9 10 11 10 10 10 10 9 7 5 5 4 3 3 4 4 6 7 7
9 12 11 10 10 10 12 15 12 10 3 4 6 6 5 7 10 13 15 14 13 11 10 10 11 11 12 11 11 12 11 11 9 8 8 7 5 3 3 2 3 4 6 5
8 7 10 12 15 12 13 15 10 6 4 2 2 7 7 8 10 12 14 15 13 11 11 11 11 12 11 11 11 10 11 10 8 8 8 7 5 3 3 4 5 5 5 6
12 10 8 11 15 12 11 8 2 4 4 3 6 7 9 12 18 20 17 16 15 12 12 12 11 10 10 10 10 10 10 8 7 7 6 6 6 6 6 5 5 5 4 5
10 12 11 9 10 10 4 3 1 4 4 7 6 5 10 12 18 23 22 19 16 14 13 14 12 10 9 10 9 9 10 8 6 7 7 7 7 7 7 5 5 5 4 4
9 12 11 9 10 9 6 10 10 9 8 8 5 5 7 8 16 17 18 17 17 14 12 13 11 10 9 9 8 8 8 7 7 7 7 7 7 5 4 5 3 3 2 2
11 13 12 9 7 6 7 7 10 9 6 3 2 2 6 12 19 21 21 19 18 15 15 14 12 10 9 8 7 7 7 7 6 7 7 6 5 5 4 3 2 1 2 3
8 9 12 10 5 6 10 9 7 7 7 5 4 6 10 16 20 21 21 20 18 16 15 13 11 10 10 8 7 7 7 5 5 5 5 4 4 3 3 2 3 3 3 3
1 6 9 5 5 7 3 4 6 6 6 8 6 10 12 24 22 21 18 18 19 17 15 13 11 11 9 7 7 6 6 5 5 4 3 3 2 2 1 2 3 4 4 4
2 3 3 8 7 6 7 8 9 6 6 6 6 11 7 18 15 18 19 20 18 16 14 14 13 11 9 7 6 5 5 5 4 3 2 2 1 2 2 3 4 4 5 5
3 5 5 10 10 8 3 3 4 6 5 4 4 9 1 16 16 16 18 18 16 16 15 13 11 10 8 6 5 5 4 4 4 3 2 2 3 3 4 4 4 4 4 4
5 3 6 6 6 3 5 7 4 2 2 2 4 4 5 15 17 14 15 15 16 16 15 13 10 7 6 6 6 6 4 3 3 2 1 2 4 4 4 3 4 4 4 4
7 3 3 5 6 4 4 4 4 3 1 5 5 7 10 13 15 14 14 16 17 16 14 13 9 6 6 6 6 5 4 3 2 2 3 4 5 5 4 4 5 5 4 5
6 5 6 5 4 5 6 5 2 1 1 4 7 5 8 12 12 14 14 16 16 14 13 11 9 8 7 6 4 3 3 4 4 4 5 5 4 4 5 5 6 5 5 5
2 4 5 5 6 4 5 4 3 5 6 9 8 10 18 17 16 14 13 15 16 14 12 10 9 8 6 4 3 2 3 4 4 3 4 4 4 5 6 6 6 6 5 5
5 1 2 3 3 5 8 6 3 4 4 9 15 21 19 16 12 11 14 16 16 14 11 10 8 6 4 3 1 1 4 5 4 3 4 5 5 6 7 7 7 6 5 5
2 4 3 2 2 6 6 4 2 3 1 11 24 22 22 22 20 11 10 14 15 12 9 8 7 6 4 2 1 3 5 4 4 5 6 7 7 7 8 8 7 5 4 3
6 3 3 2 3 6 5 5 3 9 4 3 20 25 24 17 12 8 10 13 12 9 7 8 6 5 3 2 3 3 4 4 5 6 7 7 7 7 8 8 6 3 1 4
7 6 1 3 5 8 5 3 4 5 6 6 6 8 6 5 9 14 14 12 9 8 8 8 6 4 3 4 4 4 4 4 6 6 6 6 6 6 5 4 4 5 6 6
2 3 3 2 5 9 3 2 6 6 6 11 10 10 15 19 19 15 14 11 10 9 8 6 4 3 5 5 4 3 4 5 5 5 6 7 7 6 7 8 8 7 6 5
3 4 3 4 7 7 5 3 8 13 16 13 12 16 20 18 17 14 11 10 9 7 5 4 3 4 5 4 3 2 4 4 5 6 6 6 7 8 7 7 6 5 4 4
4 3 4 7 9 7 4 7 11 16 17 16 15 16 19 18 15 14 11 7 6 5 4 2 2 2 2 1 1 1 2 4 5 6 5 5 7 7 6 5 4 4 4 4
6 4 5 8 7 3 2 8 12 15 17 17 15 16 17 18 16 12 8 6 5 4 2 2 2 1 0 1 1 1 3 5 6 5 5 6 6 5 4 3 3 3 2 3
6 6 5 6 4 3 6 8 15 17 17 18 18 14 13 15 12 9 7 5 4 3 2 2 1 1 1 1 2 3 3 5 5 5 6 5 5 4 3 3 4 5 6 8
Wind_Direction
227 142 220 231 221 213 237 265 275 277 283 292 223 149 129 128 121 126 128 129 128 128 125 105 85 76 72 66 69 69 74 67 72 69 67 65 56 41 37 33 30 32 32 31
274 233 227 222 234 239 248 261 271 282 290 115 105 83 97 128 131 134 131 126 123 118 119 120 109 93 90 89 83 73 70 65 61 65 67 76 83 64 52 26 27 28 30 29
211 236 230 226 240 246 254 241 250 255 292 70 90 49 61 91 109 116 120 123 122 122 118 111 108 106 103 98 94 90 82 74 66 64 64 57 54 44 27 19 21 19 32 40
233 242 248 246 243 232 257 255 238 241 216 200 146 145 172 137 122 128 132 133 130 124 113 104 105 106 103 101 97 90 85 80 73 71 73 72 69 58 22 12 19 17 28 33
233 228 227 240 247 239 241 253 234 229 238 239 144 145 204 165 153 156 148 141 135 129 121 112 108 108 104 99 93 88 84 78 74 73 75 73 64 48 21 16 17 9 11 28
236 247 233 237 252 244 241 240 317 46 68 282 232 173 204 198 179 162 154 146 140 132 121 114 109 104 97 91 87 84 81 73 69 72 72 76 72 57 42 27 17 11 13 28
256 264 261 248 261 279 258 187 336 315 319 255 245 214 225 204 171 160 153 149 144 139 130 123 116 106 98 88 85 84 82 71 62 63 60 64 67 61 51 40 36 30 16 7
222 257 254 246 229 237 238 164 175 205 232 268 308 261 293 148 139 141 143 143 142 141 133 127 123 118 108 96 89 84 79 68 57 58 57 57 58 56 48 44 42 27 354 328
200 234 244 240 235 209 224 200 184 165 185 200 261 72 28 108 135 146 150 148 147 145 134 130 127 121 109 98 87 83 79 68 62 72 77 67 65 65 57 49 38 4 322 322
203 230 249 249 256 283 211 180 120 139 171 224 237 201 184 173 165 160 156 150 145 141 135 135 129 115 103 98 92 82 80 80 80 88 89 88 74 68 58 31 354 326 313 316
131 211 274 288 222 239 224 163 133 138 160 173 215 248 205 186 172 160 150 144 142 141 139 133 122 112 109 103 93 83 82 83 83 96 96 84 65 47 14 333 316 314 312 313
356 112 279 265 246 221 201 196 158 165 214 176 176 252 242 173 153 148 145 145 146 143 135 128 122 117 111 103 95 90 93 91 93 102 96 64 21 351 339 322 315 318 319 317
6 75 18 340 339 1 352 296 178 153 147 165 187 265 347 139 140 145 144 145 141 132 126 121 116 113 110 106 96 86 87 95 92 87 74 6 341 338 330 321 311 306 308 317
50 116 158 213 244 301 326 334 343 104 168 235 231 228 136 143 143 144 141 135 131 128 125 121 119 119 115 104 90 79 72 75 79 66 17 314 301 301 303 305 292 283 290 305
43 27 291 247 259 281 284 300 342 7 200 188 202 174 169 155 142 134 128 128 127 127 127 127 127 120 104 90 81 74 61 47 29 342 313 290 284 292 304 300 279 275 292 298
23 20 355 326 322 314 294 276 242 232 184 147 121 95 128 121 118 127 132 131 129 132 130 127 119 107 96 90 79 57 18 349 334 314 297 294 300 300 296 278 268 283 300 296
340 30 358 299 313 347 286 277 230 200 189 153 156 152 136 133 139 143 141 134 134 132 125 117 110 105 103 109 104 45 331 311 300 282 282 296 303 295 284 274 272 286 290 284
189 199 226 265 3 254 252 297 269 188 190 145 134 141 141 134 121 116 125 128 128 124 118 115 114 119 142 150 115 323 297 282 255 255 276 284 283 280 280 282 277 278 275 279
182 181 203 191 218 276 292 335 14 107 8 146 136 133 126 119 98 86 109 120 121 120 123 126 136 149 144 127 292 295 284 262 256 262 268 268 267 268 271 273 273 266 266 307
34 87 157 172 183 235 251 315 340 93 53 128 140 142 141 128 122 141 129 117 114 116 121 127 132 117 113 236 261 270 269 267 271 272 271 274 277 277 273 275 286 286 30 46
352 359 32 192 221 253 250 303 29 123 181 122 123 137 130 97 120 134 131 121 123 124 113 114 121 131 207 243 250 266 284 285 279 289 301 312 319 319 323 350 16 49 65 53
303 310 297 234 214 248 269 107 151 174 117 106 102 104 103 108 116 125 127 129 123 105 103 119 143 206 246 250 240 268 286 282 303 328 342 346 357 23 53 64 61 59 56 41
251 226 262 256 246 275 285 191 148 131 116 115 123 128 123 122 126 127 121 111 105 116 140 153 182 233 264 260 222 252 287 311 346 1 1 10 40 50 57 66 62 53 42 30
280 251 243 264 264 270 277 145 143 131 127 130 136 131 125 124 123 116 109 113 126 136 144 147 179 229 281 292 156 208 326 17 32 25 21 40 60 59 52 57 61 58 36 18
252 261 254 260 264 272 174 144 138 127 124 123 122 120 120 120 121 122 126 136 139 142 139 143 143 101 328 255 298 354 42 53 43 39 44 51 67 78 64 52 45 49 17 25
221 214 237 254 241 186 154 139 127 119 117 119 118 112 115 122 126 129 132 136 134 128 118 103 38 16 339 356 15 33 71 72 68 60 52 58 72 75 61 34 4 348 347 4